Hauptseite
METAR-TAF:

METAR-TAF

Flughäfen :

Bohrplattform

Hoorn-a, Niederlande

Breite: 52-55-05N, Länge: 4-09-01E, Höhe: 41 m

Beobachtung

Neuester Wetterbericht von vor 15 Minuten, um 04:25 UTC
Wind 20 kt aus Süd
Temperatur 8°C
Luftfeuchtigkeit 81%
Luftdruck 1020 hPa
Sichtweite 10 km oder mehr

METAR: EHQE 170425Z AUTO 18020KT 9999 NSC 08/05 Q1020 W///H///

Zeit: 05:40 (04:40 UTC)


TAF: fehlend

Wetterbeobachtungen und Prognosen von mehr als 4000 Flughäfen (METAR und TAF Bericht).

Die verfügbaren Stationen werden durch gelbe und rote Markierungen auf der Karte dargestellt.

Führen Sie die Maus auf sie, um den Namen der Station zu sehen.

Darauf klicken, um die Beobachtung von Wetterbeobachtungen und Prognosen zu sehen.

Um die Karte zu ändern : klicken Sie auf den grünen Tasten mit einem schwarzen Kreuz Zum Vergrößern, auf den grünen Button mit einem Gedankenstrich zu verkleinern, oder auf die grünen Pfeile für benachbarte Karten.


METAR-TAF: